Location: *
(51.1248°S, 108.4023°W)
Time: 01:28:08
(UTC+00:00)

N. Korean satellite - Pass Details

Date: 03 October 2021
Orbit: 450 x 495 km, 97.3° (Epoch: 24 October)

Event Time Altitude Azimuth Distance (km) Brightness Sun altitude
Rises 02:05:00 0° 183° (S) 2,559 10.5 -6.5°
Reaches altitude 10° 02:08:01 10° 212° (SSW) 1,659 10.0 -7.0°
Maximum altitude 02:09:39 13° 239° (WSW) 1,481 10.4 -7.2°
Drops below altitude 10° 02:11:17 10° 267° (W) 1,638 10.8 -7.5°
Sets 02:14:14 0° 296° (WNW) 2,495 11.0 -7.9°
